Wetterstation Vordersexau
Wetterdaten: Jahr 2018
Datum Temp. A. Feuchte A. Luftdruck Regen Wind Richtung Taupunkt Windchill Windben
01.01.2018 8,1 C 74 % 1006,4 hPa 1,6 l/m 21,9 km/h W-SW 3,7 C 1,0 C 12,2 km/h
02.01.2018 6,5 C 78 % 1012,7 hPa 1,0 l/m 15,8 km/h W-SW 2,9 C 0,9 C 8,8 km/h
03.01.2018 9,0 C 77 % 1003,5 hPa 5,7 l/m 23,1 km/h W 5,2 C 2,0 C 12,8 km/h
04.01.2018 9,6 C 83 % 1001,3 hPa 4,7 l/m 21,1 km/h SW 6,9 C 3,2 C 11,7 km/h
05.01.2018 10,2 C 79 % 1001,3 hPa 6,7 l/m 7,2 km/h W-SW 6,7 C 8,1 C 4,0 km/h
06.01.2018 8,6 C 78 % 1004,4 hPa 0,5 l/m 0,3 km/h SO 4,9 C 8,6 C 0,2 km/h
07.01.2018 5,2 C 84 % 1011,9 hPa 0,0 l/m 0,0 km/h N-NO 2,7 C 5,2 C 0,0 km/h
08.01.2018 3,3 C 79 % 1014,4 hPa 0,5 l/m 0,3 km/h O-SO 0,0 C 3,2 C 0,2 km/h
09.01.2018 5,2 C 79 % 1010,0 hPa 0,0 l/m 0,0 km/h W-NW 1,9 C 5,2 C 0,0 km/h
10.01.2018 6,3 C 79 % 1009,5 hPa 0,0 l/m 0,0 km/h O-SO 2,8 C 6,3 C 0,0 km/h
11.01.2018 4,5 C 84 % 1012,7 hPa 1,0 l/m 0,0 km/h W-NW 2,1 C 4,5 C 0,0 km/h
12.01.2018 1,8 C 82 % 1020,7 hPa 0,0 l/m 0,0 km/h NW -0,9 C 1,8 C 0,0 km/h
13.01.2018 1,8 C 78 % 1019,6 hPa 0,0 l/m 2,1 km/h SO -1,8 C 1,2 C 1,1 km/h
14.01.2018 0,6 C 79 % 1017,9 hPa 0,0 l/m 0,0 km/h NO -2,7 C 0,6 C 0,0 km/h
15.01.2018 2,8 C 80 % 1011,7 hPa 0,0 l/m 10,2 km/h W-SW -0,5 C -0,6 C 5,7 km/h
16.01.2018 7,3 C 83 % 999,5 hPa 4,7 l/m 19,1 km/h W 4,6 C 1,1 C 10,6 km/h
17.01.2018 3,8 C 81 % 1006,1 hPa 3,6 l/m 13,1 km/h W-SW 0,7 C -1,4 C 7,3 km/h
18.01.2018 6,3 C 82 % 1006,8 hPa 4,1 l/m 25,4 km/h W 3,5 C -2,0 C 14,1 km/h
19.01.2018 5,3 C 81 % 1009,6 hPa 0,5 l/m 9,3 km/h W 2,3 C 2,1 C 5,2 km/h
20.01.2018 5,2 C 82 % 1004,5 hPa 2,1 l/m 16,7 km/h W 2,3 C -1,1 C 9,3 km/h
21.01.2018 4,4 C 81 % 1011,7 hPa 1,0 l/m 0,8 km/h NO 1,4 C 4,1 C 0,4 km/h
22.01.2018 8,5 C 81 % 1009,9 hPa 6,7 l/m 10,1 km/h NO 5,4 C 5,5 C 5,6 km/h
23.01.2018 6,4 C 80 % 1023,5 hPa 0,5 l/m 1,9 km/h S 3,1 C 5,9 C 1,1 km/h
24.01.2018 10,3 C 76 % 1020,2 hPa 0,0 l/m 6,5 km/h S-SW 6,1 C 8,4 C 3,6 km/h
25.01.2018 11,1 C 67 % 1013,7 hPa 0,0 l/m 10,4 km/h SO 5,0 C 8,1 C 5,8 km/h
26.01.2018 6,8 C 82 % 1015,6 hPa 5,2 l/m 0,1 km/h W-NW 4,0 C 6,8 C 0,0 km/h
27.01.2018 6,2 C 81 % 1027,9 hPa 1,0 l/m 0,0 km/h W-NW 3,2 C 6,2 C 0,0 km/h
28.01.2018 7,7 C 80 % 1033,8 hPa 0,0 l/m 9,6 km/h W 4,4 C 4,7 C 5,4 km/h
29.01.2018 7,5 C 83 % 1030,5 hPa 0,0 l/m 11,2 km/h W 4,7 C 4,0 C 6,2 km/h
30.01.2018 8,4 C 83 % 1026,7 hPa 0,0 l/m 0,3 km/h W-SW 5,6 C 8,4 C 0,2 km/h
31.01.2018 7,7 C 80 % 1012,9 hPa 1,6 l/m 18,2 km/h W-SW 4,4 C 1,4 C 10,1 km/h
02.02.2018 1,4 C 83 % 1005,9 hPa 0,0 l/m 5,0 km/h W-SW -1,2 C -0,6 C 2,8 km/h
03.02.2018 2,1 C 83 % 1005,3 hPa 0,0 l/m 3,3 km/h SO -0,5 C 0,7 C 1,9 km/h
04.02.2018 2,1 C 78 % 1011,9 hPa 0,5 l/m 1,9 km/h SO -1,5 C 1,5 C 1,0 km/h
05.02.2018 1,6 C 82 % 1015,8 hPa 0,0 l/m 0,0 km/h W -1,2 C 1,6 C 0,0 km/h
06.02.2018 1,1 C 81 % 1008,9 hPa 0,0 l/m 0,0 km/h N-NW -1,9 C 1,1 C 0,0 km/h
07.02.2018 0,2 C 85 % 1009,9 hPa 0,0 l/m 0,4 km/h W-SW -2,0 C 0,1 C 0,2 km/h
08.02.2018 1,2 C 84 % 1015,8 hPa 1,0 l/m 0,0 km/h W-SW -1,3 C 1,2 C 0,0 km/h
09.02.2018 2,0 C 82 % 1013,3 hPa 0,0 l/m 2,8 km/h W-NW -0,8 C 1,0 C 1,5 km/h
10.02.2018 2,4 C 80 % 1014,8 hPa 0,0 l/m 7,1 km/h W -0,7 C -0,4 C 4,0 km/h
11.02.2018 3,1 C 79 % 1007,6 hPa 0,0 l/m 11,8 km/h S -0,2 C -1,3 C 6,6 km/h
12.02.2018 1,5 C 78 % 1013,4 hPa 1,0 l/m 0,3 km/h SO -2,0 C 1,4 C 0,2 km/h
13.02.2018 0,8 C 68 % 1011,7 hPa 15,0 l/m 10,0 km/h O-SO -4,8 C -3,2 C 5,6 km/h
14.02.2018 1,0 C 67 % 1013,1 hPa 0,0 l/m 4,5 km/h O-SO -4,9 C -0,3 C 2,5 km/h
15.02.2018 3,6 C 83 % 1014,0 hPa 7,8 l/m 2,4 km/h N-NO 0,9 C 2,8 C 1,3 km/h
16.02.2018 7,2 C 77 % 1021,6 hPa 3,6 l/m 0,4 km/h N-NO 3,3 C 7,1 C 0,2 km/h
17.02.2018 1,4 C 80 % 1016,6 hPa 13,5 l/m 0,3 km/h W -1,7 C 1,4 C 0,2 km/h
18.02.2018 1,1 C 82 % 1022,3 hPa 2,6 l/m 0,8 km/h W -1,7 C 0,7 C 0,4 km/h
19.02.2018 1,5 C 81 % 1016,1 hPa 0,0 l/m 0,0 km/h NO -1,4 C 1,5 C 0,0 km/h
20.02.2018 0,8 C 80 % 1013,1 hPa 0,0 l/m 0,8 km/h N -2,3 C 0,5 C 0,4 km/h
21.02.2018 2,0 C 68 % 1014,9 hPa 0,0 l/m 7,2 km/h N-NO -3,6 C -0,4 C 4,0 km/h
22.02.2018 0,1 C 67 % 1011,8 hPa 0,0 l/m 4,8 km/h N-NO -5,4 C -1,7 C 2,7 km/h
23.02.2018 0,5 C 67 % 1011,2 hPa 0,0 l/m 2,7 km/h N-NO -4,8 C -0,5 C 1,5 km/h
01.03.2018 22,4 C 67 % 1014,2 hPa 0,0 l/m 5,5 km/h O-SO 15,4 C 22,0 C 3,1 km/h
02.03.2018 17,0 C 81 % 1015,1 hPa 6,6 l/m 4,1 km/h SO 13,7 C 16,3 C 2,3 km/h
03.03.2018 17,5 C 67 % 1019,3 hPa 0,0 l/m 2,4 km/h SO 10,7 C 17,3 C 1,3 km/h
04.03.2018 21,6 C 63 % 1018,0 hPa 0,0 l/m 0,7 km/h W 13,4 C 21,6 C 0,4 km/h
05.03.2018 21,6 C 65 % 1015,4 hPa 0,0 l/m 1,7 km/h SO 14,1 C 21,5 C 0,9 km/h
06.03.2018 22,1 C 60 % 1018,1 hPa 0,0 l/m 2,3 km/h O 13,0 C 22,1 C 1,3 km/h
Min-Datum 14.02.18 04.03.18 03.01.18 28 Tage 01.01.18 - 14.02.18 14.02.18 01.01.18
Min-Zeit 06:53 17:56 08:53 - 14:53 - 06:53 07:53 14:53
Minimum -5,4 C 36 % 995,4 hPa - 0,0 km/h - -8,0 C -16,7 C 0,0 km/h
Max-Datum 04.03.18 03.02.18 28.01.18 13.02.18 18.01.18 - 05.03.18 04.03.18 18.01.18
Max-Zeit 17:56 23:53 11:53 16:53 13:53 - 10:56 17:56 13:53
Maximum 33,9 C 87 % 1034,8 hPa 15,0 l/m 70,0 km/h
W
- 18,9 C 33,9 C 38,9 km/h
W
Durchschnitt 6,1 C 78 % 1013,6 hPa #105,5 l/m 5,7 km/h W 2,3 C 4,2 C 3,2 km/h

Durchschnitt Minimum Temp.2,5 C
Durchschnitt Maximum Temp.10,8 C
www.sexauwetter.de